Beckley, WV

1:21 AM EDT on March 27, 2017 (GMT -0400)
Raleigh County Memorial

Weather History for KBKW - November, 2014

Change the Weather History Date:

Thursday, November 27, 2014

  Actual Average Record
Temperature  
Mean Temperature 29 °F 40 °F  
Max Temperature 33 °F 48 °F 74 °F (1990)
Min Temperature 25 °F 31 °F 1 °F (1930)
Degree Days  
Heating Degree Days 36 25  
Month to date heating degree days 718 555  
Since 1 July heating degree days 1162 1061  
Cooling Degree Days 0 0  
Month to date cooling degree days 0 0  
Year to date cooling degree days 602 556  
Moisture  
Dew Point 25 °F    
Average Humidity 81    
Maximum Humidity 92    
Minimum Humidity 69    
Precipitation  
Precipitation 0.03 in 0.10 in 1.00 in (1921)
Month to date precipitation 2.20 2.64  
Year to date precipitation 34.22 37.88  
Snow  
Snow 1.10 in - - ()
Month to date snowfall 2.9  
Since 1 September snowfall 2.9  
Snow Depth T in    
Sea Level Pressure  
Sea Level Pressure 30.11 in    
Wind  
Wind Speed 9 mph (NW)    
Max Wind Speed 18 mph    
Max Gust Speed 25 mph    
Visibility 4 miles    
Events Fog , Snow    
T = Trace of Precipitation, MM = Missing Value Source: NWS Daily Summary

Daily Weather History Graph

Daily Weather History Graph

Search for Another Location

Airport or City:

Trip Planner

Search our weather history database for the weather conditions in past years. The results will help you decide how hot, cold, wet, or windy it might be!

Date:

Astronomy

Nov. 27, 2014 Rise Set
Actual Time 7:17 AM EST 5:06 PM EST
Civil Twilight 6:48 AM EST 5:35 PM EST
Nautical Twilight 6:16 AM EST 6:07 PM EST
Astronomical Twilight 5:44 AM EST 6:39 PM EST
Moon 11:33 AM EST 10:42 PM EST
Length of Visible Light 10h 47m
Length of Day
9h 49m
Waxing Crescent, 31% of the Moon is Illuminated
Nov 27
Waxing Crescent
Nov 29
First Quarter
Dec 6
Full
Dec 14
Last Quarter
Dec 21
New

Hourly Weather History & Observations

Time (EST) Temp. Windchill Dew Point Humidity Pressure Visibility Wind Dir Wind Speed Gust Speed Precip Events Conditions
12:51 AM 32.0 °F - 30.0 °F 92% 30.01 in 5.0 mi Calm Calm - N/A   Clear
1:51 AM 33.1 °F - 30.0 °F 89% 30.01 in 7.0 mi Calm Calm - N/A   Overcast
2:31 AM 33.1 °F - 30.0 °F 89% 29.94 in 4.0 mi Calm Calm - 0.00 in Snow Light Snow
2:51 AM 33.1 °F - 30.9 °F 92% 30.01 in 4.0 mi Calm Calm - 0.00 in   Overcast
2:59 AM 33.1 °F - 30.9 °F 92% 29.94 in 4.0 mi Calm Calm - N/A   Overcast
3:26 AM 33.1 °F - 30.9 °F 92% 29.93 in 2.5 mi Calm Calm - 0.00 in Snow Light Snow
3:33 AM 33.1 °F - 30.9 °F 92% 29.93 in 1.5 mi Calm Calm - 0.01 in Snow Light Snow
3:43 AM 33.1 °F - 30.9 °F 92% 29.93 in 3.0 mi Calm Calm - 0.01 in Snow Light Snow
3:51 AM 33.1 °F - 30.9 °F 92% 30.00 in 3.0 mi Calm Calm - 0.01 in Snow Light Snow
3:56 AM 33.1 °F 30.0 °F 30.9 °F 92% 29.93 in 1.8 mi NNW 3.5 mph - 0.00 in Snow Light Snow
4:00 AM 33.1 °F - 30.9 °F 92% 29.93 in 0.8 mi Calm Calm - 0.00 in Snow Light Snow
4:20 AM 33.1 °F - 32.0 °F 96% 29.93 in 1.5 mi Calm Calm - 0.00 in   Overcast
4:28 AM 33.1 °F - 30.9 °F 92% 29.93 in 1.8 mi Calm Calm - 0.00 in Snow Light Snow
4:39 AM 32.0 °F - 30.0 °F 92% 29.94 in 0.5 mi Calm Calm - 0.00 in Fog , Snow Light Snow
4:42 AM 32.0 °F - 30.0 °F 92% 29.94 in 0.5 mi Calm Calm - 0.00 in Fog , Snow Light Snow
4:51 AM 32.0 °F - 30.9 °F 96% 30.01 in 0.2 mi Calm Calm - 0.00 in Fog , Snow Light Snow
5:31 AM 32.0 °F - 30.9 °F 96% 29.94 in 0.5 mi Calm Calm - 0.00 in Fog , Snow Light Snow
5:51 AM 32.0 °F - 30.9 °F 96% 30.02 in 0.5 mi Calm Calm - 0.00 in Fog Fog
6:21 AM 32.0 °F 28.7 °F 30.0 °F 92% 29.96 in 0.8 mi NW 3.5 mph - N/A   Overcast
6:37 AM 32.0 °F - 30.9 °F 96% 29.96 in 0.2 mi Calm Calm - 0.00 in Fog , Snow Light Snow
6:51 AM 32.0 °F 28.7 °F 30.9 °F 96% 30.05 in 0.8 mi NW 3.5 mph - 0.00 in   Overcast
6:58 AM 32.0 °F 27.5 °F 30.9 °F 96% 29.98 in 1.8 mi NW 4.6 mph - 0.00 in Snow Light Snow
7:07 AM 32.0 °F 27.5 °F 30.9 °F 96% 29.98 in 2.0 mi NW 4.6 mph - 0.00 in Snow Light Snow
7:41 AM 32.0 °F 24.2 °F 30.0 °F 92% 29.99 in 1.2 mi NNW 9.2 mph - 0.00 in   Overcast
7:51 AM 32.0 °F 22.1 °F 28.9 °F 88% 30.07 in 2.0 mi NNW 13.8 mph - 0.00 in Snow Light Snow
7:58 AM 30.9 °F 22.8 °F 28.9 °F 92% 30.00 in 1.0 mi NNW 9.2 mph - 0.00 in Snow Light Snow
8:36 AM 30.9 °F 22.8 °F 28.9 °F 92% 30.01 in 2.0 mi NNW 9.2 mph - 0.01 in Snow Light Snow
8:51 AM 32.0 °F 25.6 °F 28.9 °F 88% 30.10 in 4.0 mi NNW 6.9 mph - 0.01 in Snow Light Snow
9:48 AM 30.2 °F 21.9 °F 26.6 °F 86% 30.05 in 10.0 mi NW 9.2 mph - 0.00 in   Overcast
9:51 AM 30.9 °F 22.2 °F 27.0 °F 85% 30.13 in 10.0 mi NW 10.4 mph - 0.00 in   Overcast
9:58 AM 30.9 °F 21.2 °F 27.0 °F 85% 30.05 in 10.0 mi WNW 12.7 mph - N/A   Overcast
10:04 AM 30.9 °F 24.3 °F 27.0 °F 85% 30.05 in 10.0 mi NW 6.9 mph - N/A   Overcast
10:51 AM 32.0 °F 21.6 °F 25.0 °F 75% 30.16 in 10.0 mi NW 15.0 mph 20.7 mph N/A   Overcast
11:51 AM 30.9 °F 20.7 °F 21.9 °F 69% 30.16 in 10.0 mi NW 13.8 mph - N/A   Overcast
12:51 PM 30.0 °F 20.0 °F 21.9 °F 72% 30.17 in 10.0 mi NW 12.7 mph - N/A   Overcast
1:51 PM 28.4 °F 17.5 °F 21.2 °F 74% 30.09 in 10.0 mi NW 13.8 mph - N/A   Overcast
2:51 PM 28.9 °F 17.7 °F 21.9 °F 75% 30.20 in 10.0 mi West 15.0 mph 21.9 mph 0.00 in   Overcast
3:51 PM 28.0 °F 18.1 °F 21.0 °F 75% 30.22 in 10.0 mi WNW 11.5 mph - 0.00 in   Overcast
4:51 PM 28.0 °F 16.5 °F 21.0 °F 75% 30.25 in 4.0 mi WNW 15.0 mph 25.3 mph 0.00 in Snow Light Snow
5:10 PM 27.0 °F 17.3 °F 21.0 °F 78% 30.17 in 2.5 mi NW 10.4 mph - 0.00 in Snow Light Snow
5:16 PM 27.0 °F 17.3 °F 21.0 °F 78% 30.17 in 3.0 mi NW 10.4 mph - 0.00 in Snow Light Snow
5:22 PM 27.0 °F 18.0 °F 21.0 °F 78% 30.18 in 1.8 mi WNW 9.2 mph - 0.00 in Snow Light Snow
5:51 PM 26.1 °F 16.2 °F 21.9 °F 84% 30.28 in 1.5 mi NNW 10.4 mph - 0.00 in Snow Light Snow
6:05 PM 26.1 °F 17.6 °F 21.9 °F 84% 30.19 in 2.0 mi NW 8.1 mph - 0.00 in Snow Light Snow
6:16 PM 26.1 °F 15.0 °F 21.9 °F 84% 30.19 in 3.0 mi WNW 12.7 mph - 0.00 in Snow Light Snow
6:28 PM 26.1 °F 15.6 °F 21.0 °F 81% 30.20 in 4.0 mi WNW 11.5 mph - 0.00 in Snow Light Snow
6:40 PM 26.1 °F 18.4 °F 21.0 °F 81% 30.20 in 2.0 mi WNW 6.9 mph - 0.00 in Snow Light Snow
6:48 PM 26.6 °F 17.5 °F 21.2 °F 80% 30.20 in 1.2 mi West 9.2 mph - 0.01 in Snow Light Snow
6:51 PM 26.1 °F 16.8 °F 21.0 °F 81% 30.30 in 1.8 mi WNW 9.2 mph - 0.01 in Snow Light Snow
6:55 PM 26.1 °F 15.6 °F 21.0 °F 81% 30.21 in 3.0 mi WNW 11.5 mph - 0.00 in Snow Light Snow
7:51 PM 25.0 °F 16.3 °F 18.0 °F 75% 30.32 in 10.0 mi WNW 8.1 mph 19.6 mph 0.00 in   Overcast
8:00 PM 25.0 °F 13.6 °F 18.0 °F 75% 30.22 in 9.0 mi WNW 12.7 mph - 0.00 in Snow Light Snow
8:51 PM 25.0 °F 14.8 °F 19.9 °F 81% 30.33 in 4.0 mi WNW 10.4 mph - 0.00 in Snow Light Snow
9:10 PM 25.0 °F 17.1 °F 19.9 °F 81% 30.23 in 2.5 mi WNW 6.9 mph - 0.00 in Snow Light Snow
9:20 PM 25.0 °F 17.1 °F 19.9 °F 81% 30.23 in 4.0 mi WNW 6.9 mph - 0.00 in Snow Light Snow
9:34 PM 25.0 °F 15.5 °F 19.9 °F 81% 30.23 in 2.5 mi WNW 9.2 mph - 0.00 in Snow Light Snow
9:37 PM 25.0 °F 17.1 °F 19.9 °F 81% 30.23 in 3.0 mi WNW 6.9 mph - 0.00 in Snow Light Snow
9:51 PM 25.0 °F 17.1 °F 21.0 °F 85% 30.34 in 3.0 mi WNW 6.9 mph - 0.00 in Snow Light Snow
9:54 PM 25.0 °F 16.3 °F 21.0 °F 85% 30.24 in 3.0 mi WNW 8.1 mph - 0.00 in Snow Light Snow
10:14 PM 25.0 °F 16.3 °F 21.0 °F 85% 30.23 in 3.0 mi WNW 8.1 mph - 0.00 in Snow Light Snow
10:51 PM 25.0 °F 15.5 °F 21.0 °F 85% 30.33 in 2.5 mi WNW 9.2 mph - 0.00 in Snow Light Snow
11:04 PM 24.8 °F 16.1 °F 21.2 °F 86% 30.23 in 2.5 mi NW 8.1 mph - N/A Snow Light Snow
11:12 PM 25.0 °F 17.1 °F 21.0 °F 85% 30.23 in 4.0 mi WNW 6.9 mph - 0.00 in Snow Light Snow
11:34 PM 25.0 °F 16.3 °F 21.0 °F 85% 30.22 in 4.0 mi WNW 8.1 mph - 0.00 in Snow Light Snow
11:51 PM 25.0 °F 14.8 °F 21.0 °F 85% 30.32 in 4.0 mi WNW 10.4 mph - 0.00 in Snow Light Snow